Time,TemperatureF,DewpointF,PressureIn,WindDirection,WindDirectionDegrees,WindSpeedMPH,WindSpeedGustMPH,Humidity,HourlyPrecipIn,Conditions,Clouds,dailyrainin,SoftwareType,DateUTC
2013-01-02 00:02:00,36.8,33.3,30.31,WNW,294,5.0,5.0,87,0.00,,,0.00,Wunderground v.1.15,2013-01-02 06:02:00,
2013-01-02 00:09:00,36.8,33.3,30.31,NW,304,7.0,7.0,87,0.00,,,0.00,Wunderground v.1.15,2013-01-02 06:09:00,
2013-01-02 00:18:00,36.7,33.2,30.31,WNW,296,8.0,8.0,87,0.00,,,0.00,Wunderground v.1.15,2013-01-02 06:18:00,
2013-01-02 00:26:00,36.7,34.6,30.30,NW,305,5.0,7.0,92,0.00,,,0.00,Wunderground v.1.15,2013-01-02 06:26:00,
2013-01-02 00:31:00,36.6,33.1,30.31,WNW,290,11.0,12.0,87,0.00,,,0.00,Wunderground v.1.15,2013-01-02 06:31:00,
2013-01-02 00:37:00,36.6,32.8,30.31,WNW,300,9.0,9.0,86,0.00,,,0.00,Wunderground v.1.15,2013-01-02 06:37:00,
2013-01-02 00:42:00,36.6,33.1,30.30,WNW,297,4.0,9.0,87,0.00,,,0.00,Wunderground v.1.15,2013-01-02 06:42:00,
2013-01-02 00:47:00,36.6,32.8,30.30,NW,315,8.0,8.0,86,0.00,,,0.00,Wunderground v.1.15,2013-01-02 06:47:00,
2013-01-02 00:53:00,36.5,33.0,30.31,West,280,9.0,9.0,87,0.00,,,0.00,Wunderground v.1.15,2013-01-02 06:53:00,
2013-01-02 01:00:00,36.5,33.0,30.30,WNW,293,9.0,9.0,87,0.00,,,0.00,Wunderground v.1.15,2013-01-02 07:00:00,
2013-01-02 01:07:00,36.5,33.0,30.30,WNW,300,2.0,7.0,87,0.00,,,0.00,Wunderground v.1.15,2013-01-02 07:07:00,
2013-01-02 01:12:00,36.5,33.0,30.30,NW,305,1.0,7.0,87,0.00,,,0.00,Wunderground v.1.15,2013-01-02 07:12:00,
2013-01-02 01:17:00,36.5,32.7,30.30,NW,311,6.0,6.0,86,0.00,,,0.00,Wunderground v.1.15,2013-01-02 07:17:00,
2013-01-02 01:22:00,36.5,33.0,30.30,NW,320,2.0,6.0,87,0.00,,,0.00,Wunderground v.1.15,2013-01-02 07:22:00,
2013-01-02 01:30:00,36.5,33.0,30.30,WNW,301,8.0,8.0,87,0.00,,,0.00,Wunderground v.1.15,2013-01-02 07:30:00,
2013-01-02 01:37:00,36.4,32.6,30.30,NW,305,5.0,5.0,86,0.00,,,0.00,Wunderground v.1.15,2013-01-02 07:37:00,
2013-01-02 01:43:00,36.3,32.5,30.31,NW,312,6.0,6.0,86,0.00,,,0.00,Wunderground v.1.15,2013-01-02 07:43:00,
2013-01-02 01:51:00,36.3,32.8,30.31,WNW,303,5.0,5.0,87,0.00,,,0.00,Wunderground v.1.15,2013-01-02 07:51:00,
2013-01-02 01:58:00,36.2,32.7,30.31,WNW,302,0.0,3.0,87,0.00,,,0.00,Wunderground v.1.15,2013-01-02 07:58:00,
2013-01-02 02:06:00,36.2,32.7,30.31,NW,316,1.0,3.0,87,0.00,,,0.00,Wunderground v.1.15,2013-01-02 08:06:00,
2013-01-02 02:13:00,36.1,32.3,30.31,WNW,302,5.0,5.0,86,0.00,,,0.00,Wunderground v.1.15,2013-01-02 08:13:00,
2013-01-02 02:20:00,36.1,32.6,30.31,NW,304,2.0,5.0,87,0.00,,,0.00,Wunderground v.1.15,2013-01-02 08:20:00,
2013-01-02 02:26:00,36.1,32.3,30.31,WNW,301,5.0,5.0,86,0.00,,,0.00,Wunderground v.1.15,2013-01-02 08:26:00,
2013-01-02 02:32:00,36.1,32.6,30.31,WNW,290,5.0,6.0,87,0.00,,,0.00,Wunderground v.1.15,2013-01-02 08:32:00,
2013-01-02 02:37:00,36.1,32.6,30.32,NW,312,0.0,3.0,87,0.00,,,0.00,Wunderground v.1.15,2013-01-02 08:37:00,
2013-01-02 02:45:00,36.0,32.2,30.32,NW,305,5.0,6.0,86,0.00,,,0.00,Wunderground v.1.15,2013-01-02 08:45:00,
2013-01-02 02:50:00,36.1,32.6,30.31,WNW,303,4.0,4.0,87,0.00,,,0.00,Wunderground v.1.15,2013-01-02 08:50:00,
2013-01-02 02:56:00,35.9,31.8,30.32,WNW,303,4.0,7.0,85,0.00,,,0.00,Wunderground v.1.15,2013-01-02 08:56:00,
2013-01-02 03:01:00,35.9,31.8,30.32,NW,309,0.0,6.0,85,0.00,,,0.00,Wunderground v.1.15,2013-01-02 09:01:00,
2013-01-02 03:07:00,35.9,31.8,30.32,WNW,301,6.0,6.0,85,0.00,,,0.00,Wunderground v.1.15,2013-01-02 09:07:00,
2013-01-02 03:13:00,35.9,31.8,30.32,WNW,293,14.0,14.0,85,0.00,,,0.00,Wunderground v.1.15,2013-01-02 09:13:00,
2013-01-02 03:21:00,35.9,31.8,30.32,NW,308,2.0,14.0,85,0.00,,,0.00,Wunderground v.1.15,2013-01-02 09:21:00,
2013-01-02 03:27:00,35.9,31.8,30.32,NW,310,0.0,2.0,85,0.00,,,0.00,Wunderground v.1.15,2013-01-02 09:27:00,
2013-01-02 03:33:00,35.8,32.0,30.32,NW,316,1.0,2.0,86,0.00,,,0.00,Wunderground v.1.15,2013-01-02 09:33:00,
2013-01-02 03:40:00,35.8,32.0,30.32,NW,312,5.0,5.0,86,0.00,,,0.00,Wunderground v.1.15,2013-01-02 09:40:00,
2013-01-02 03:46:00,35.7,31.9,30.32,NW,314,4.0,5.0,86,0.00,,,0.00,Wunderground v.1.15,2013-01-02 09:46:00,
2013-01-02 03:53:00,35.5,31.7,30.31,NW,310,2.0,5.0,86,0.00,,,0.00,Wunderground v.1.15,2013-01-02 09:53:00,
2013-01-02 03:59:00,35.4,31.6,30.32,NW,306,6.0,7.0,86,0.00,,,0.00,Wunderground v.1.15,2013-01-02 09:59:00,
2013-01-02 04:06:00,35.3,31.5,30.31,NW,317,5.0,5.0,86,0.00,,,0.00,Wunderground v.1.15,2013-01-02 10:06:00,
2013-01-02 04:13:00,35.2,31.4,30.31,WNW,299,5.0,5.0,86,0.00,,,0.00,Wunderground v.1.15,2013-01-02 10:13:00,
2013-01-02 04:19:00,35.1,31.6,30.31,WNW,301,1.0,5.0,87,0.00,,,0.00,Wunderground v.1.15,2013-01-02 10:19:00,
2013-01-02 04:25:00,35.0,31.5,30.31,NW,304,4.0,4.0,87,0.00,,,0.00,Wunderground v.1.15,2013-01-02 10:25:00,
2013-01-02 04:31:00,35.0,31.5,30.31,WNW,295,6.0,6.0,87,0.00,,,0.00,Wunderground v.1.15,2013-01-02 10:31:00,
2013-01-02 04:39:00,34.9,31.4,30.32,NW,304,4.0,4.0,87,0.00,,,0.00,Wunderground v.1.15,2013-01-02 10:39:00,
2013-01-02 04:45:00,34.8,31.3,30.32,WNW,299,0.0,4.0,87,0.00,,,0.00,Wunderground v.1.15,2013-01-02 10:45:00,
2013-01-02 04:50:00,34.8,31.3,30.32,WNW,282,2.0,4.0,87,0.00,,,0.00,Wunderground v.1.15,2013-01-02 10:50:00,
2013-01-02 04:58:00,34.7,31.2,30.31,NW,310,6.0,6.0,87,0.00,,,0.00,Wunderground v.1.15,2013-01-02 10:58:00,
2013-01-02 05:04:00,34.7,31.2,30.31,NW,307,1.0,7.0,87,0.00,,,0.00,Wunderground v.1.15,2013-01-02 11:04:00,
2013-01-02 05:12:00,34.5,31.0,30.31,NW,307,0.0,7.0,87,0.00,,,0.00,Wunderground v.1.15,2013-01-02 11:12:00,
2013-01-02 05:17:00,34.4,30.9,30.31,NW,306,0.0,4.0,87,0.00,,,0.00,Wunderground v.1.15,2013-01-02 11:17:00,
2013-01-02 05:23:00,33.9,30.4,30.31,NW,314,2.0,4.0,87,0.00,,,0.00,Wunderground v.1.15,2013-01-02 11:23:00,
2013-01-02 05:29:00,33.7,30.2,30.31,NW,308,2.0,4.0,87,0.00,,,0.00,Wunderground v.1.15,2013-01-02 11:29:00,
2013-01-02 05:35:00,33.5,30.3,30.31,NW,307,2.0,2.0,88,0.00,,,0.00,Wunderground v.1.15,2013-01-02 11:35:00,
2013-01-02 05:42:00,33.2,30.0,30.31,NW,314,0.0,2.0,88,0.00,,,0.00,Wunderground v.1.15,2013-01-02 11:42:00,
2013-01-02 05:48:00,33.2,30.3,30.32,WNW,303,0.0,2.0,89,0.00,,,0.00,Wunderground v.1.15,2013-01-02 11:48:00,
2013-01-02 05:55:00,33.3,30.4,30.32,NW,305,4.0,4.0,89,0.00,,,0.00,Wunderground v.1.15,2013-01-02 11:55:00,
2013-01-02 06:01:00,33.3,30.4,30.32,NW,314,0.0,4.0,89,0.00,,,0.00,Wunderground v.1.15,2013-01-02 12:01:00,
2013-01-02 06:08:00,33.3,30.1,30.32,NW,307,6.0,7.0,88,0.00,,,0.00,Wunderground v.1.15,2013-01-02 12:08:00,
2013-01-02 06:13:00,33.3,30.1,30.33,NW,304,1.0,2.0,88,0.00,,,0.00,Wunderground v.1.15,2013-01-02 12:13:00,
2013-01-02 06:20:00,33.4,30.5,30.32,NNW,334,0.0,2.0,89,0.00,,,0.00,Wunderground v.1.15,2013-01-02 12:20:00,
2013-01-02 06:26:00,33.5,30.6,30.32,NNW,332,0.0,0.0,89,0.00,,,0.00,Wunderground v.1.15,2013-01-02 12:26:00,
2013-01-02 06:32:00,33.5,30.3,30.32,NNW,334,0.0,0.0,88,0.00,,,0.00,Wunderground v.1.15,2013-01-02 12:32:00,
2013-01-02 06:37:00,33.6,30.4,30.32,NW,309,0.0,0.0,88,0.00,,,0.00,Wunderground v.1.15,2013-01-02 12:37:00,
2013-01-02 06:43:00,33.7,30.5,30.31,NW,316,0.0,1.0,88,0.00,,,0.00,Wunderground v.1.15,2013-01-02 12:43:00,
2013-01-02 06:48:00,33.6,30.4,30.32,NW,317,0.0,1.0,88,0.00,,,0.00,Wunderground v.1.15,2013-01-02 12:48:00,
2013-01-02 06:54:00,33.6,30.4,30.32,NW,309,0.0,0.0,88,0.00,,,0.00,Wunderground v.1.15,2013-01-02 12:54:00,
2013-01-02 07:02:00,33.6,30.4,30.32,NW,317,0.0,2.0,88,0.00,,,0.00,Wunderground v.1.15,2013-01-02 13:02:00,
2013-01-02 07:10:00,33.7,30.5,30.32,NW,324,0.0,0.0,88,0.00,,,0.00,Wunderground v.1.15,2013-01-02 13:10:00,
2013-01-02 07:15:00,33.7,30.5,30.32,NW,322,0.0,1.0,88,0.00,,,0.00,Wunderground v.1.15,2013-01-02 13:15:00,
2013-01-02 07:36:00,33.8,30.9,30.33,NW,308,0.0,1.0,89,0.00,,,0.00,Wunderground v.1.15,2013-01-02 13:36:00,
2013-01-02 08:08:00,34.1,30.6,30.34,NNW,327,5.0,5.0,87,0.00,,,0.00,Wunderground v.1.15,2013-01-02 14:08:00,
2013-01-02 08:11:00,34.1,30.6,30.34,North,354,6.0,6.0,87,0.00,,,0.00,Wunderground v.1.15,2013-01-02 14:11:00,
2013-01-02 08:33:00,34.4,30.9,30.34,NNW,332,0.0,1.0,87,0.00,,,0.00,Wunderground v.1.15,2013-01-02 14:33:00,
2013-01-02 08:38:00,34.6,31.1,30.35,NNW,332,0.0,1.0,87,0.00,,,0.00,Wunderground v.1.15,2013-01-02 14:38:00,
2013-01-02 08:41:00,34.6,30.8,30.35,WNW,303,6.0,6.0,86,0.00,,,0.00,Wunderground v.1.15,2013-01-02 14:41:00,
2013-01-02 08:55:00,34.6,30.8,30.36,NNW,345,0.0,1.0,86,0.00,,,0.00,Wunderground v.1.15,2013-01-02 14:55:00,
2013-01-02 09:02:00,34.7,30.9,30.36,NNW,339,0.0,1.0,86,0.00,,,0.00,Wunderground v.1.15,2013-01-02 15:02:00,
2013-01-02 09:10:00,34.8,31.0,30.37,NNW,328,0.0,1.0,86,0.00,,,0.00,Wunderground v.1.15,2013-01-02 15:10:00,
2013-01-02 09:17:00,34.9,31.1,30.37,NNW,338,0.0,1.0,86,0.00,,,0.00,Wunderground v.1.15,2013-01-02 15:17:00,
2013-01-02 09:23:00,35.1,31.0,30.37,NW,318,0.0,0.0,85,0.00,,,0.00,Wunderground v.1.15,2013-01-02 15:23:00,
2013-01-02 09:28:00,35.3,31.2,30.37,NW,321,0.0,1.0,85,0.00,,,0.00,Wunderground v.1.15,2013-01-02 15:28:00,
2013-01-02 09:33:00,35.5,31.4,30.38,NNW,341,1.0,1.0,85,0.00,,,0.00,Wunderground v.1.15,2013-01-02 15:33:00,
2013-01-02 09:39:00,35.8,31.7,30.37,NNW,341,0.0,7.0,85,0.00,,,0.00,Wunderground v.1.15,2013-01-02 15:39:00,
2013-01-02 09:45:00,35.9,31.5,30.37,NW,320,0.0,1.0,84,0.00,,,0.00,Wunderground v.1.15,2013-01-02 15:45:00,
2013-01-02 09:52:00,36.1,31.4,30.37,NNW,347,0.0,1.0,83,0.00,,,0.00,Wunderground v.1.15,2013-01-02 15:52:00,
2013-01-02 09:58:00,36.1,31.4,30.37,NNW,341,0.0,0.0,83,0.00,,,0.00,Wunderground v.1.15,2013-01-02 15:58:00,
2013-01-02 10:03:00,36.3,31.6,30.37,North,357,0.0,4.0,83,0.00,,,0.00,Wunderground v.1.15,2013-01-02 16:03:00,
2013-01-02 10:10:00,36.5,31.8,30.38,NNW,334,0.0,7.0,83,0.00,,,0.00,Wunderground v.1.15,2013-01-02 16:10:00,
2013-01-02 10:16:00,36.6,31.9,30.37,NNW,327,0.0,1.0,83,0.00,,,0.00,Wunderground v.1.15,2013-01-02 16:16:00,
2013-01-02 10:25:00,36.6,31.9,30.38,NW,316,0.0,0.0,83,0.00,,,0.00,Wunderground v.1.15,2013-01-02 16:25:00,
2013-01-02 10:30:00,36.8,31.8,30.38,NW,305,0.0,0.0,82,0.00,,,0.00,Wunderground v.1.15,2013-01-02 16:30:00,
2013-01-02 10:36:00,36.9,31.9,30.37,NW,312,0.0,0.0,82,0.00,,,0.00,Wunderground v.1.15,2013-01-02 16:36:00,
2013-01-02 10:41:00,36.9,31.9,30.38,NW,326,0.0,0.0,82,0.00,,,0.00,Wunderground v.1.15,2013-01-02 16:41:00,
2013-01-02 10:47:00,36.9,31.9,30.38,NNW,339,0.0,0.0,82,0.00,,,0.00,Wunderground v.1.15,2013-01-02 16:47:00,
2013-01-02 10:53:00,37.1,31.8,30.38,NW,312,0.0,0.0,81,0.00,,,0.00,Wunderground v.1.15,2013-01-02 16:53:00,
2013-01-02 10:59:00,37.1,31.5,30.38,WNW,299,4.0,4.0,80,0.00,,,0.00,Wunderground v.1.15,2013-01-02 16:59:00,
2013-01-02 11:05:00,37.3,31.7,30.38,WNW,296,0.0,2.0,80,0.00,,,0.00,Wunderground v.1.15,2013-01-02 17:05:00,
2013-01-02 11:11:00,37.5,32.5,30.38,NW,322,0.0,2.0,82,0.00,,,0.00,Wunderground v.1.15,2013-01-02 17:11:00,
2013-01-02 11:18:00,37.6,32.0,30.37,West,278,5.0,5.0,80,0.00,,,0.00,Wunderground v.1.15,2013-01-02 17:18:00,
2013-01-02 11:23:00,37.2,31.3,30.37,West,262,1.0,3.0,79,0.00,,,0.00,Wunderground v.1.15,2013-01-02 17:23:00,
2013-01-02 11:29:00,37.3,31.7,30.37,WNW,293,7.0,7.0,80,0.00,,,0.00,Wunderground v.1.15,2013-01-02 17:29:00,
2013-01-02 11:35:00,37.5,32.2,30.37,NW,319,0.0,4.0,81,0.00,,,0.00,Wunderground v.1.15,2013-01-02 17:35:00,
2013-01-02 11:40:00,37.6,32.3,30.36,NW,323,0.0,4.0,81,0.00,,,0.00,Wunderground v.1.15,2013-01-02 17:40:00,
2013-01-02 11:49:00,37.7,32.1,30.36,WNW,298,0.0,2.0,80,0.00,,,0.00,Wunderground v.1.15,2013-01-02 17:49:00,
2013-01-02 11:56:00,37.6,31.7,30.35,West,265,0.0,11.0,79,0.00,,,0.00,Wunderground v.1.15,2013-01-02 17:56:00,
2013-01-02 12:01:00,37.4,32.1,30.35,West,263,3.0,5.0,81,0.00,,,0.00,Wunderground v.1.15,2013-01-02 18:01:00,
2013-01-02 12:06:00,37.8,32.2,30.35,WNW,282,0.0,9.0,80,0.00,,,0.00,Wunderground v.1.15,2013-01-02 18:06:00,
2013-01-02 12:14:00,37.6,32.0,30.35,West,272,6.0,6.0,80,0.00,,,0.00,Wunderground v.1.15,2013-01-02 18:14:00,
2013-01-02 12:21:00,37.7,32.1,30.34,WNW,298,6.0,8.0,80,0.00,,,0.00,Wunderground v.1.15,2013-01-02 18:21:00,
2013-01-02 12:28:00,38.3,32.4,30.34,WNW,298,8.0,8.0,79,0.00,,,0.00,Wunderground v.1.15,2013-01-02 18:28:00,
2013-01-02 12:33:00,38.6,32.3,30.34,WNW,289,5.0,8.0,78,0.00,,,0.00,Wunderground v.1.15,2013-01-02 18:33:00,
2013-01-02 12:39:00,38.5,31.9,30.33,WSW,254,6.0,6.0,77,0.00,,,0.00,Wunderground v.1.15,2013-01-02 18:39:00,
2013-01-02 12:45:00,38.4,32.1,30.33,WNW,299,11.0,11.0,78,0.00,,,0.00,Wunderground v.1.15,2013-01-02 18:45:00,
2013-01-02 12:51:00,38.4,32.1,30.33,WNW,287,7.0,11.0,78,0.00,,,0.00,Wunderground v.1.15,2013-01-02 18:51:00,
2013-01-02 12:57:00,38.6,32.0,30.33,WNW,297,7.0,7.0,77,0.00,,,0.00,Wunderground v.1.15,2013-01-02 18:57:00,
2013-01-02 13:04:00,38.8,32.5,30.32,NW,306,6.0,6.0,78,0.00,,,0.00,Wunderground v.1.15,2013-01-02 19:04:00,
2013-01-02 13:10:00,39.0,32.4,30.32,WNW,299,5.0,7.0,77,0.00,,,0.00,Wunderground v.1.15,2013-01-02 19:10:00,
2013-01-02 13:15:00,39.1,32.5,30.32,NW,307,5.0,6.0,77,0.00,,,0.00,Wunderground v.1.15,2013-01-02 19:15:00,
2013-01-02 13:20:00,39.3,32.4,30.31,WNW,302,2.0,6.0,76,0.00,,,0.00,Wunderground v.1.15,2013-01-02 19:20:00,
2013-01-02 13:27:00,39.8,33.2,30.31,West,261,5.0,5.0,77,0.00,,,0.00,Wunderground v.1.15,2013-01-02 19:27:00,
2013-01-02 13:32:00,39.9,32.3,30.31,WNW,297,7.0,7.0,74,0.00,,,0.00,Wunderground v.1.15,2013-01-02 19:32:00,
2013-01-02 13:37:00,40.2,32.6,30.31,NW,305,8.0,8.0,74,0.00,,,0.00,Wunderground v.1.15,2013-01-02 19:37:00,
2013-01-02 13:42:00,40.3,32.7,30.31,NNW,331,8.0,8.0,74,0.00,,,0.00,Wunderground v.1.15,2013-01-02 19:42:00,
2013-01-02 13:49:00,40.5,32.9,30.31,WNW,301,6.0,6.0,74,0.00,,,0.00,Wunderground v.1.15,2013-01-02 19:49:00,
2013-01-02 13:56:00,40.5,32.9,30.31,NNW,343,0.0,7.0,74,0.00,,,0.00,Wunderground v.1.15,2013-01-02 19:56:00,
2013-01-02 14:01:00,40.7,32.7,30.31,North,353,6.0,8.0,73,0.00,,,0.00,Wunderground v.1.15,2013-01-02 20:01:00,
2013-01-02 14:07:00,40.8,32.8,30.31,NW,304,6.0,6.0,73,0.00,,,0.00,Wunderground v.1.15,2013-01-02 20:07:00,
2013-01-02 14:15:00,40.4,32.8,30.31,NW,308,5.0,6.0,74,0.00,,,0.00,Wunderground v.1.15,2013-01-02 20:15:00,
2013-01-02 14:20:00,40.4,32.8,30.31,NNW,339,5.0,6.0,74,0.00,,,0.00,Wunderground v.1.15,2013-01-02 20:20:00,
2013-01-02 14:26:00,40.4,32.8,30.31,West,275,4.0,9.0,74,0.00,,,0.00,Wunderground v.1.15,2013-01-02 20:26:00,
2013-01-02 14:33:00,40.3,32.7,30.31,NW,305,2.0,4.0,74,0.00,,,0.00,Wunderground v.1.15,2013-01-02 20:33:00,
2013-01-02 14:40:00,40.3,33.0,30.31,NW,316,7.0,7.0,75,0.00,,,0.00,Wunderground v.1.15,2013-01-02 20:40:00,
2013-01-02 14:47:00,40.2,32.9,30.31,NW,305,0.0,3.0,75,0.00,,,0.00,Wunderground v.1.15,2013-01-02 20:47:00,
2013-01-02 14:56:00,40.3,33.0,30.30,NNW,333,0.0,4.0,75,0.00,,,0.00,Wunderground v.1.15,2013-01-02 20:56:00,
2013-01-02 15:03:00,40.3,32.7,30.30,NNW,337,0.0,2.0,74,0.00,,,0.00,Wunderground v.1.15,2013-01-02 21:03:00,
2013-01-02 15:08:00,40.4,32.8,30.30,WNW,299,8.0,8.0,74,0.00,,,0.00,Wunderground v.1.15,2013-01-02 21:08:00,
2013-01-02 15:14:00,40.4,32.8,30.30,NW,307,0.0,3.0,74,0.00,,,0.00,Wunderground v.1.15,2013-01-02 21:14:00,
2013-01-02 15:21:00,40.5,32.5,30.30,NNW,334,0.0,3.0,73,0.00,,,0.00,Wunderground v.1.15,2013-01-02 21:21:00,
2013-01-02 15:28:00,40.5,32.5,30.30,WNW,300,8.0,8.0,73,0.00,,,0.00,Wunderground v.1.15,2013-01-02 21:28:00,
2013-01-02 15:34:00,40.5,32.5,30.30,NW,306,0.0,2.0,73,0.00,,,0.00,Wunderground v.1.15,2013-01-02 21:34:00,
2013-01-02 15:40:00,40.5,33.2,30.30,NW,324,0.0,2.0,75,0.00,,,0.00,Wunderground v.1.15,2013-01-02 21:40:00,
2013-01-02 15:45:00,40.5,32.5,30.30,WNW,294,0.0,1.0,73,0.00,,,0.00,Wunderground v.1.15,2013-01-02 21:45:00,
2013-01-02 15:52:00,40.4,32.8,30.30,NW,306,6.0,6.0,74,0.00,,,0.00,Wunderground v.1.15,2013-01-02 21:52:00,
2013-01-02 15:57:00,40.4,32.8,30.29,NW,305,0.0,1.0,74,0.00,,,0.00,Wunderground v.1.15,2013-01-02 21:57:00,
2013-01-02 16:02:00,40.4,32.4,30.30,WNW,301,6.0,6.0,73,0.00,,,0.00,Wunderground v.1.15,2013-01-02 22:02:00,
2013-01-02 16:09:00,40.2,32.6,30.30,NW,322,0.0,6.0,74,0.00,,,0.00,Wunderground v.1.15,2013-01-02 22:09:00,
2013-01-02 16:16:00,40.0,32.4,30.30,NW,325,0.0,2.0,74,0.00,,,0.00,Wunderground v.1.15,2013-01-02 22:16:00,
2013-01-02 16:22:00,40.0,32.4,30.30,NW,314,0.0,2.0,74,0.00,,,0.00,Wunderground v.1.15,2013-01-02 22:22:00,
2013-01-02 16:29:00,39.7,32.1,30.30,NW,308,0.0,0.0,74,0.00,,,0.00,Wunderground v.1.15,2013-01-02 22:29:00,
2013-01-02 16:34:00,39.5,31.9,30.30,NW,308,0.0,0.0,74,0.00,,,0.00,Wunderground v.1.15,2013-01-02 22:34:00,
2013-01-02 16:40:00,39.4,32.5,30.30,North,357,0.0,0.0,76,0.00,,,0.00,Wunderground v.1.15,2013-01-02 22:40:00,
2013-01-02 16:48:00,39.2,32.3,30.30,NNW,328,0.0,0.0,76,0.00,,,0.00,Wunderground v.1.15,2013-01-02 22:48:00,
2013-01-02 16:54:00,39.1,31.8,30.30,NW,318,0.0,0.0,75,0.00,,,0.00,Wunderground v.1.15,2013-01-02 22:54:00,
2013-01-02 16:59:00,38.9,32.0,30.30,NNW,332,0.0,0.0,76,0.00,,,0.00,Wunderground v.1.15,2013-01-02 22:59:00,
2013-01-02 17:05:00,38.9,32.3,30.30,NNW,331,0.0,0.0,77,0.00,,,0.00,Wunderground v.1.15,2013-01-02 23:05:00,
2013-01-02 17:11:00,38.8,32.2,30.30,NNW,331,0.0,0.0,77,0.00,,,0.00,Wunderground v.1.15,2013-01-02 23:11:00,
2013-01-02 17:16:00,38.6,32.0,30.30,NNW,331,0.0,0.0,77,0.00,,,0.00,Wunderground v.1.15,2013-01-02 23:16:00,
2013-01-02 17:22:00,38.3,31.7,30.30,NNW,331,0.0,0.0,77,0.00,,,0.00,Wunderground v.1.15,2013-01-02 23:22:00,
2013-01-02 17:28:00,38.1,31.8,30.30,NNW,331,0.0,0.0,78,0.00,,,0.00,Wunderground v.1.15,2013-01-02 23:28:00,
2013-01-02 17:35:00,37.7,31.5,30.30,NNW,331,0.0,0.0,78,0.00,,,0.00,Wunderground v.1.15,2013-01-02 23:35:00,
2013-01-02 17:43:00,37.3,31.4,30.30,NNW,331,0.0,0.0,79,0.00,,,0.00,Wunderground v.1.15,2013-01-02 23:43:00,
2013-01-02 17:53:00,37.2,31.6,30.30,NNW,331,0.0,0.0,80,0.00,,,0.00,Wunderground v.1.15,2013-01-02 23:53:00,
2013-01-02 17:58:00,36.7,31.1,30.31,NNW,331,0.0,0.0,80,0.00,,,0.00,Wunderground v.1.15,2013-01-02 23:58:00,
2013-01-02 18:05:00,36.2,30.9,30.31,NNW,331,0.0,0.0,81,0.00,,,0.00,Wunderground v.1.15,2013-01-03 00:05:00,
2013-01-02 18:12:00,35.9,30.9,30.31,NNW,331,0.0,0.0,82,0.00,,,0.00,Wunderground v.1.15,2013-01-03 00:12:00,
2013-01-02 18:19:00,35.5,30.8,30.31,NNW,331,0.0,0.0,83,0.00,,,0.00,Wunderground v.1.15,2013-01-03 00:19:00,
2013-01-02 18:24:00,35.2,30.9,30.31,NNW,331,0.0,0.0,84,0.00,,,0.00,Wunderground v.1.15,2013-01-03 00:24:00,
2013-01-02 18:29:00,35.0,30.7,30.31,NNW,331,0.0,0.0,84,0.00,,,0.00,Wunderground v.1.15,2013-01-03 00:29:00,
2013-01-02 18:35:00,34.8,30.5,30.32,NNW,331,0.0,0.0,84,0.00,,,0.00,Wunderground v.1.15,2013-01-03 00:35:00,
2013-01-02 18:42:00,34.5,30.2,30.31,NNW,331,0.0,0.0,84,0.00,,,0.00,Wunderground v.1.15,2013-01-03 00:42:00,
2013-01-02 18:50:00,34.2,30.2,30.32,NNW,331,0.0,0.0,85,0.00,,,0.00,Wunderground v.1.15,2013-01-03 00:50:00,
2013-01-02 18:56:00,33.9,30.2,30.32,NNW,331,0.0,0.0,86,0.00,,,0.00,Wunderground v.1.15,2013-01-03 00:56:00,
2013-01-02 19:04:00,33.7,30.0,30.32,NNW,331,0.0,0.0,86,0.00,,,0.00,Wunderground v.1.15,2013-01-03 01:04:00,
2013-01-02 19:11:00,33.3,29.8,30.33,NNW,331,0.0,0.0,87,0.00,,,0.00,Wunderground v.1.15,2013-01-03 01:11:00,
2013-01-02 19:16:00,33.1,29.7,30.33,NNW,331,0.0,0.0,87,0.00,,,0.00,Wunderground v.1.15,2013-01-03 01:16:00,
2013-01-02 19:23:00,32.9,29.7,30.33,NNW,331,0.0,0.0,88,0.00,,,0.00,Wunderground v.1.15,2013-01-03 01:23:00,
2013-01-02 19:28:00,32.8,29.6,30.33,NNW,331,0.0,0.0,88,0.00,,,0.00,Wunderground v.1.15,2013-01-03 01:28:00,
2013-01-02 19:33:00,32.6,29.7,30.34,NNW,331,0.0,0.0,89,0.00,,,0.00,Wunderground v.1.15,2013-01-03 01:33:00,
2013-01-02 19:39:00,32.4,29.5,30.34,NNW,331,0.0,0.0,89,0.00,,,0.00,Wunderground v.1.15,2013-01-03 01:39:00,
2013-01-02 19:46:00,32.1,29.2,30.34,NNW,331,0.0,0.0,89,0.00,,,0.00,Wunderground v.1.15,2013-01-03 01:46:00,
2013-01-02 19:52:00,32.0,29.4,30.34,NNW,331,0.0,0.0,90,0.00,,,0.00,Wunderground v.1.15,2013-01-03 01:52:00,
2013-01-02 20:00:00,31.9,29.3,30.34,NNW,331,0.0,0.0,90,0.00,,,0.00,Wunderground v.1.15,2013-01-03 02:00:00,
2013-01-02 20:05:00,31.7,29.1,30.34,NNW,331,0.0,0.0,90,0.00,,,0.00,Wunderground v.1.15,2013-01-03 02:05:00,
2013-01-02 20:11:00,31.6,29.0,30.34,NNW,331,0.0,0.0,90,0.00,,,0.00,Wunderground v.1.15,2013-01-03 02:11:00,
2013-01-02 20:16:00,31.5,28.9,30.34,NNW,331,0.0,0.0,90,0.00,,,0.00,Wunderground v.1.15,2013-01-03 02:16:00,
2013-01-02 20:22:00,31.4,29.1,30.34,NNW,331,0.0,0.0,91,0.00,,,0.00,Wunderground v.1.15,2013-01-03 02:22:00,
2013-01-02 20:31:00,31.3,29.0,30.35,NNW,331,0.0,0.0,91,0.00,,,0.00,Wunderground v.1.15,2013-01-03 02:31:00,
2013-01-02 20:39:00,31.1,28.8,30.35,NNW,331,0.0,0.0,91,0.00,,,0.00,Wunderground v.1.15,2013-01-03 02:39:00,
2013-01-02 20:46:00,30.8,28.5,30.35,NNW,331,0.0,0.0,91,0.00,,,0.00,Wunderground v.1.15,2013-01-03 02:46:00,
2013-01-02 20:52:00,30.6,28.3,30.35,NNW,331,0.0,0.0,91,0.00,,,0.00,Wunderground v.1.15,2013-01-03 02:52:00,
2013-01-02 21:00:00,30.4,28.1,30.35,NNW,331,0.0,0.0,91,0.00,,,0.00,Wunderground v.1.15,2013-01-03 03:00:00,
2013-01-02 21:07:00,30.6,28.6,30.35,NNW,331,0.0,0.0,92,0.00,,,0.00,Wunderground v.1.15,2013-01-03 03:07:00,
2013-01-02 21:13:00,30.6,28.6,30.35,NNW,331,0.0,0.0,92,0.00,,,0.00,Wunderground v.1.15,2013-01-03 03:13:00,
2013-01-02 21:19:00,30.4,28.4,30.34,NNW,331,0.0,0.0,92,0.00,,,0.00,Wunderground v.1.15,2013-01-03 03:19:00,
2013-01-02 21:26:00,30.1,28.1,30.34,NNW,331,0.0,0.0,92,0.00,,,0.00,Wunderground v.1.15,2013-01-03 03:26:00,
2013-01-02 21:32:00,29.9,27.6,30.34,NNW,331,0.0,0.0,91,0.00,,,0.00,Wunderground v.1.15,2013-01-03 03:32:00,
2013-01-02 21:38:00,29.6,27.6,30.34,NNW,331,0.0,0.0,92,0.00,,,0.00,Wunderground v.1.15,2013-01-03 03:38:00,
2013-01-02 21:45:00,29.3,27.3,30.34,NNW,331,0.0,0.0,92,0.00,,,0.00,Wunderground v.1.15,2013-01-03 03:45:00,
2013-01-02 21:53:00,29.2,27.2,30.35,NNW,331,0.0,0.0,92,0.00,,,0.00,Wunderground v.1.15,2013-01-03 03:53:00,
2013-01-02 21:58:00,29.0,27.2,30.35,NNW,331,0.0,0.0,93,0.00,,,0.00,Wunderground v.1.15,2013-01-03 03:58:00,
2013-01-02 22:06:00,28.9,27.1,30.35,NNW,331,0.0,0.0,93,0.00,,,0.00,Wunderground v.1.15,2013-01-03 04:06:00,
2013-01-02 22:13:00,28.6,26.6,30.35,NNW,331,0.0,0.0,92,0.00,,,0.00,Wunderground v.1.15,2013-01-03 04:13:00,
2013-01-02 22:19:00,28.5,26.7,30.36,NNW,331,0.0,0.0,93,0.00,,,0.00,Wunderground v.1.15,2013-01-03 04:19:00,
2013-01-02 22:24:00,28.4,26.6,30.35,NNW,331,0.0,0.0,93,0.00,,,0.00,Wunderground v.1.15,2013-01-03 04:24:00,
2013-01-02 22:29:00,28.3,26.5,30.35,NNW,331,0.0,0.0,93,0.00,,,0.00,Wunderground v.1.15,2013-01-03 04:29:00,
2013-01-02 22:34:00,28.3,26.5,30.36,NNW,331,0.0,0.0,93,0.00,,,0.00,Wunderground v.1.15,2013-01-03 04:34:00,
2013-01-02 22:40:00,28.2,26.4,30.36,NNW,331,0.0,0.0,93,0.00,,,0.00,Wunderground v.1.15,2013-01-03 04:40:00,
2013-01-02 22:47:00,28.1,26.3,30.36,NNW,331,0.0,0.0,93,0.00,,,0.00,Wunderground v.1.15,2013-01-03 04:47:00,
2013-01-02 22:53:00,28.0,26.2,30.36,NNW,331,0.0,0.0,93,0.00,,,0.00,Wunderground v.1.15,2013-01-03 04:53:00,
2013-01-02 22:59:00,27.8,26.0,30.36,NNW,331,0.0,0.0,93,0.00,,,0.00,Wunderground v.1.15,2013-01-03 04:59:00,
2013-01-02 23:02:00,27.8,26.3,30.36,NNW,331,0.0,0.0,94,0.00,,,0.00,Wunderground v.1.15,2013-01-03 05:02:00,
2013-01-02 23:06:00,27.8,26.3,30.36,NNW,331,0.0,0.0,94,0.00,,,0.00,Wunderground v.1.15,2013-01-03 05:06:00,
2013-01-02 23:07:00,27.8,26.3,30.36,NNW,331,0.0,0.0,94,0.00,,,0.00,Wunderground v.1.15,2013-01-03 05:07:00,
2013-01-02 23:12:00,27.8,26.3,30.36,NNW,331,0.0,0.0,94,0.00,,,0.00,Wunderground v.1.15,2013-01-03 05:12:00,
2013-01-02 23:13:00,27.7,26.2,30.36,NNW,331,0.0,0.0,94,0.00,,,0.00,Wunderground v.1.15,2013-01-03 05:13:00,
2013-01-02 23:19:00,27.6,26.1,30.36,NNW,331,0.0,0.0,94,0.00,,,0.00,Wunderground v.1.15,2013-01-03 05:19:00,
2013-01-02 23:25:00,27.6,26.1,30.36,NNW,331,0.0,0.0,94,0.00,,,0.00,Wunderground v.1.15,2013-01-03 05:25:00,
2013-01-02 23:30:00,27.8,26.3,30.36,NNW,331,0.0,0.0,94,0.00,,,0.00,Wunderground v.1.15,2013-01-03 05:30:00,
2013-01-02 23:36:00,27.8,26.3,30.36,NNW,331,0.0,0.0,94,0.00,,,0.00,Wunderground v.1.15,2013-01-03 05:36:00,
2013-01-02 23:42:00,27.7,26.2,30.36,NNW,331,0.0,0.0,94,0.00,,,0.00,Wunderground v.1.15,2013-01-03 05:42:00,
2013-01-02 23:48:00,27.5,26.0,30.36,NNW,331,0.0,0.0,94,0.00,,,0.00,Wunderground v.1.15,2013-01-03 05:48:00,
2013-01-02 23:54:00,27.3,25.8,30.36,NNW,331,0.0,0.0,94,0.00,,,0.00,Wunderground v.1.15,2013-01-03 05:54:00,
2013-01-02 23:59:00,27.1,25.6,30.36,NNW,331,0.0,0.0,94,0.00,,,0.00,Wunderground v.1.15,2013-01-03 05:59:00,